This demonstration page uses our WeatherBlox Daily Observations layout. Learn more.

Left ArrowRight Arrow

34.74481, -87.66753

Hourly Observations for January 15, 2020

Temp ( °F °C ) Dew Point ( °F °C ) Humidity (%) Winds ( mph kmh ) Pressure ( in mb ) Visibility ( mi km ) Precip ( " mm )
12:53 am 00:53 Cloudy 63 17.2 60 15.6 90 90 S 3 6 30.11 1020 10 16 0.00 0.00
1:53 am 01:53 Cloudy 63 17.2 60 15.6 90 90 SSW 3 6 30.12 1020 10 16 0.00 0.00
2:08 am 02:08 Cloudy 63 17.2 61 16.1 93 93 SSW 5 7 30.12 1020 10 16 0.00 0.00
2:53 am 02:53 Cloudy 63 17.2 61 16.1 93 93 S 5 7 30.10 1019 10 16 0.00 0.00
3:17 am 03:17 Cloudy 63 17.2 61 16.1 93 93 S 6 9 30.11 1020 10 16 0.00 0.00
3:32 am 03:32 Cloudy 63 17.2 61 16.1 93 93 Calm 30.10 1019 10 16 0.00 0.00
3:53 am 03:53 Cloudy 63 17.2 61 16.1 93 93 Calm 30.10 1019 10 16 0.00 0.00
4:53 am 04:53 Cloudy 63 17.2 61 16.1 93 93 S 3 6 30.10 1019 10 16 0.00 0.00
5:53 am 05:53 Cloudy 63 17.2 60 15.6 90 90 S 5 7 30.11 1020 10 16 0.00 0.00
6:53 am 06:53 Cloudy 63 17.2 60 15.6 90 90 S 3 6 30.13 1020 10 16 0.00 0.00
7:46 am 07:46 Cloudy 63 17.2 60 15.6 90 90 Calm 30.13 1020 10 16 0.00 0.00
7:53 am 07:53 Cloudy 63 17.2 60 15.6 90 90 Calm 30.13 1020 10 16 0.00 0.00
8:46 am 08:46 Cloudy 65 18.3 60 15.6 84 84 SSW 7 11 30.14 1021 10 16 0.00 0.00
8:53 am 08:53 Cloudy 65 18.3 60 15.6 84 84 SSW 8 13 30.14 1021 10 16 0.00 0.00
9:53 am 09:53 Cloudy 66 18.9 61 16.1 84 84 WSW 9 15 30.16 1021 10 16 0.00 0.00
10:53 am 10:53 Cloudy 68 20 62 16.7 81 81 SW 9 15 30.14 1021 10 16 0.00 0.00
11:53 am 11:53 Cloudy 68 20 63 17.2 84 84 SW 14 22 30.12 1020 10 16 0.00 0.00
12:53 pm 12:53 Cloudy 69 20.6 63 17.2 81 81 SW 10 17 30.10 1019 10 16 0.00 0.00
1:24 pm 13:24 Cloudy 69 20.6 63 17.2 81 81 WSW 9 15 30.10 1019 10 16 0.00 0.00
1:53 pm 13:53 Cloudy 69 20.6 63 17.2 81 81 SW 7 11 30.09 1019 10 16 0.00 0.00
2:53 pm 14:53 Cloudy 69 20.6 63 17.2 81 81 SSW 7 11 30.09 1019 10 16 0.00 0.00
3:53 pm 15:53 Cloudy 68 20 64 17.8 87 87 S 6 9 30.10 1019 10 16 0.00 0.00
4:53 pm 16:53 Cloudy 68 20 64 17.8 87 87 SSW 6 9 30.11 1020 10 16 0.00 0.00
5:53 pm 17:53 Cloudy with Light Rain 67 19.4 64 17.8 91 91 SW 5 7 30.13 1020 8 13 0.00 0.00
6:53 pm 18:53 Cloudy 67 19.4 64 17.8 91 91 SSW 8 13 30.13 1020 10 16 0.01 0.25
7:53 pm 19:53 Cloudy 67 19.4 64 17.8 91 91 S 9 15 30.11 1020 10 16 0.00 0.00
8:53 pm 20:53 Cloudy 67 19.4 64 17.8 91 91 SW 7 11 30.13 1020 10 16 0.00 0.00
9:22 pm 21:22 Mostly Cloudy with Nearby Thunderstorms 67 19.4 64 17.8 91 91 WSW 5 7 30.14 1021 10 16 0.00 0.00
9:34 pm 21:34 Cloudy with Nearby Thunderstorms 66 18.9 62 16.7 87 87 NW 16 26 30.20 1023 7 11 0.00 0.00
9:39 pm 21:39 Cloudy with Strong Thunderstorms 64 17.8 59 15 84 84 NW 14 22 30.20 1023 4 6 0.00 0.00
9:42 pm 21:42 Cloudy with Strong Thunderstorms 63 17.2 58 14.4 84 84 WNW 13 20 30.20 1023 3 4 0.01 0.25
9:46 pm 21:46 Cloudy with Strong Thunderstorms 62 16.7 59 15 90 90 WNW 12 19 30.19 1022 2 3 0.01 0.25
9:53 pm 21:53 Cloudy with Strong Thunderstorms 62 16.7 59 15 90 90 W 10 17 30.18 1022 2 3 0.01 0.25
10:00 pm 22:00 Cloudy with Nearby Thunderstorms 63 17.2 59 15 87 87 W 9 15 30.18 1022 6 10 0.00 0.00
10:22 pm 22:22 Mostly Cloudy with Light Rain 62 16.7 60 15.6 93 93 WNW 5 7 30.18 1022 10 16 0.00 0.00
10:53 pm 22:53 Cloudy with Rain 63 17.2 60 15.6 90 90 S 5 7 30.19 1022 8 13 0.00 0.00
11:21 pm 23:21 Cloudy 62 16.7 60 15.6 93 93 NW 6 9 30.20 1023 10 16 0.01 0.25
11:28 pm 23:28 Cloudy 62 16.7 60 15.6 93 93 NW 3 6 30.20 1023 10 16 0.01 0.25
11:53 pm 23:53 Mostly Cloudy 62 16.7 60 15.6 93 93 NNW 5 7 30.20 1023 10 16 0.02 0.51

Powered by AerisWeather